Weather History for KLHQ - September, 2013

Change the Weather History Date:

Monday, September 2, 2013

  Actual Average Record
Temperature  
Mean Temperature 74 °F -  
Max Temperature 84 °F 81 °F 102 °F (1953)
Min Temperature 64 °F 57 °F 38 °F (1967)
Cooling Degree Days 9    
Growing Degree Days 24 (Base 50)    
Moisture  
Dew Point 69 °F    
Average Humidity 84    
Maximum Humidity 94    
Minimum Humidity 60    
Precipitation  
Precipitation 0.14 in - - ()
Sea Level Pressure  
Sea Level Pressure 29.82 in    
Wind  
Wind Speed 3 mph (West)    
Max Wind Speed 15 mph    
Max Gust Speed 20 mph    
Visibility 7 miles    
Events Rain , Thunderstorm    
Averages and records for this station are not official NWS values.
T = Trace of Precipitation, MM = Missing Value Source: NWS Daily Summary

Daily Weather History Graph

Daily Weather History Graph

Search for Another Location

Airport or City:

Trip Planner

Search our weather history database for the weather conditions in past years. The results will help you decide how hot, cold, wet, or windy it might be!

Date:

Astronomy

Sep. 02, 2013 Rise Set
Actual Time 6:59 AM EDT 7:59 PM EDT
Civil Twilight 6:32 AM EDT 8:27 PM EDT
Nautical Twilight 5:59 AM EDT 9:00 PM EDT
Astronomical Twilight 5:25 AM EDT 9:34 PM EDT
Moon 4:15 AM EDT (9/2) 6:12 PM EDT (9/2)
Length of Visible Light 13h 55m
Length of Day
13h 00m
Waning Crescent, 8% of the Moon is Illuminated
Sep 2
Waning Crescent
Sep 5
New
Sep 12
First Quarter
Sep 19
Full
Sep 26
Last Quarter

Hourly Weather History & Observations

Time (EDT) Temp. Heat Index Dew Point Humidity Pressure Visibility Wind Dir Wind Speed Gust Speed Precip Events Conditions
12:53 AM 72.0 °F - 66.9 °F 84% 29.80 in 10.0 mi Calm Calm - N/A   Clear
1:53 AM 72.0 °F - 68.0 °F 87% 29.79 in 10.0 mi SSW 3.5 mph - N/A   Clear
2:53 AM 71.1 °F - 68.0 °F 90% 29.78 in 10.0 mi Calm Calm - N/A   Clear
3:53 AM 71.1 °F - 68.0 °F 90% 29.79 in 8.0 mi Calm Calm - N/A   Clear
4:53 AM 70.0 °F - 68.0 °F 93% 29.80 in 7.0 mi Calm Calm - N/A   Scattered Clouds
5:37 AM 71.6 °F - 69.8 °F 94% 29.82 in 8.0 mi Calm Calm - N/A   Mostly Cloudy
5:53 AM 70.0 °F - 68.0 °F 93% 29.80 in 8.0 mi Calm Calm - N/A   Mostly Cloudy
6:05 AM 71.6 °F - 69.8 °F 94% 29.82 in 8.0 mi Calm Calm - N/A   Mostly Cloudy
6:48 AM 71.6 °F - 69.8 °F 94% 29.82 in 7.0 mi Calm Calm - N/A   Overcast
6:53 AM 72.0 °F - 70.0 °F 93% 29.80 in 7.0 mi Calm Calm - N/A   Overcast
7:05 AM 71.6 °F - 69.8 °F 94% 29.82 in 6.0 mi Calm Calm - N/A   Overcast
7:53 AM 72.0 °F - 70.0 °F 93% 29.81 in 4.0 mi SW 4.6 mph - N/A   Overcast
8:14 AM 71.6 °F - 69.8 °F 94% 29.84 in 3.0 mi West 4.6 mph - N/A   Overcast
8:39 AM 71.6 °F - 69.8 °F 94% 29.84 in 2.5 mi WSW 5.8 mph - N/A   Overcast
8:53 AM 72.0 °F - 70.0 °F 93% 29.82 in 2.5 mi West 6.9 mph - N/A   Overcast
9:20 AM 73.4 °F - 69.8 °F 88% 29.85 in 3.0 mi West 6.9 mph - N/A   Overcast
9:35 AM 73.4 °F - 71.6 °F 94% 29.85 in 4.0 mi West 8.1 mph - N/A   Overcast
9:53 AM 73.9 °F - 70.0 °F 87% 29.83 in 5.0 mi WSW 8.1 mph - N/A   Mostly Cloudy
10:04 AM 73.4 °F - 69.8 °F 88% 29.86 in 6.0 mi West 4.6 mph - N/A   Mostly Cloudy
10:53 AM 78.1 °F - 70.0 °F 76% 29.84 in 8.0 mi SW 8.1 mph - N/A   Mostly Cloudy
11:53 AM 79.0 °F - 70.0 °F 74% 29.84 in 9.0 mi WSW 9.2 mph - N/A   Mostly Cloudy
12:16 PM 80.6 °F 84.6 °F 71.6 °F 74% 29.86 in 10.0 mi WSW 8.1 mph - N/A   Scattered Clouds
12:53 PM 81.0 °F 84.9 °F 71.1 °F 72% 29.83 in 10.0 mi West 8.1 mph - N/A   Scattered Clouds
1:53 PM 84.0 °F 89.6 °F 72.0 °F 67% 29.82 in 10.0 mi West 6.9 mph - N/A   Scattered Clouds
2:28 PM 80.6 °F 84.6 °F 71.6 °F 74% 29.82 in 10.0 mi SW 9.2 mph - N/A Thunderstorm Scattered Clouds
2:42 PM 82.4 °F 87.2 °F 71.6 °F 70% 29.82 in 6.0 mi WSW 15.0 mph 19.6 mph 0.01 in Rain , Thunderstorm Light Rain
2:46 PM 78.8 °F - 69.8 °F 74% 29.82 in 1.8 mi West 11.5 mph 19.6 mph 0.09 in Rain , Thunderstorm Heavy Thunderstorms and Rain
2:50 PM 75.2 °F - 69.8 °F 83% 29.83 in 0.8 mi West 4.6 mph - 0.14 in Rain , Thunderstorm Heavy Thunderstorms and Rain
2:53 PM 75.0 °F - 71.1 °F 87% 29.81 in 1.0 mi Calm Calm - 0.14 in Rain , Thunderstorm Light Thunderstorms and Rain
2:57 PM 77.0 °F - 71.6 °F 83% 29.83 in 2.0 mi Calm Calm - 0.00 in Rain , Thunderstorm Light Thunderstorms and Rain
3:04 PM 78.8 °F - 73.4 °F 83% 29.83 in 8.0 mi Calm Calm - 0.00 in Thunderstorm Thunderstorm
3:44 PM 82.4 °F 87.2 °F 71.6 °F 70% 29.82 in 10.0 mi NW 10.4 mph 16.1 mph 0.00 in   Scattered Clouds
3:53 PM 82.0 °F 85.9 °F 70.0 °F 67% 29.79 in 10.0 mi WNW 9.2 mph - 0.00 in   Partly Cloudy
4:53 PM 82.9 °F 85.8 °F 68.0 °F 60% 29.78 in 10.0 mi West 6.9 mph - N/A   Partly Cloudy
5:53 PM 80.1 °F 82.9 °F 69.1 °F 69% 29.79 in 10.0 mi Variable 4.6 mph - N/A   Scattered Clouds
6:53 PM 77.0 °F - 69.1 °F 76% 29.81 in 10.0 mi North 5.8 mph - N/A   Clear
7:53 PM 75.0 °F - 66.9 °F 76% 29.81 in 10.0 mi North 6.9 mph - N/A   Partly Cloudy
8:53 PM 71.1 °F - 66.0 °F 84% 29.83 in 10.0 mi NNW 3.5 mph - N/A   Clear
9:53 PM 66.9 °F - 64.9 °F 93% 29.85 in 7.0 mi Calm Calm - N/A   Clear
10:53 PM 64.9 °F - 63.0 °F 93% 29.86 in 4.0 mi Calm Calm - N/A   Clear
11:53 PM 66.0 °F - 62.1 °F 87% 29.87 in 10.0 mi NNW 3.5 mph - N/A   Scattered Clouds